Tracking 31011 objects as of 11-Jul-2025
HD Live streaming from Space Station
objects crossing your sky now

COSMOS 1823 DEB

Track COSMOS 1823 DEB now!
10-day predictions


NORAD ID: 18758
Int'l Code: 1987-020AK
Perigee: 1,480.2 km
Apogee: 1,564.2 km
Inclination: 73.6 °
Period: 116.3 minutes
Semi major axis: 7893 km
RCS: 0.06 m2 (small)
Launch date: February 20, 1987
Source: Commonwealth of Independent States (former USSR) (CIS)
Launch site: PLESETSK MISSILE AND SPACE COMPLEX (PKMTR)

Note: This is SATELLITE DEBRIS
Your satellite tracking list
Your tracking list is empty




NASA's NSSDC Master Catalog

Two Line Element Set (TLE):
1 18758U 87020AK  25192.51029417 -.00000027  00000-0 -81139-4 0  9991
2 18758  73.6265 292.1618 0053207 115.5479 265.6108 12.38016232696049
Source of the keplerian elements: AFSPC